Время (UTC), дата Ветер
(°,м/с) 
Видим.   Явления Облачность Т
(°С)
Тd
(°С)
f(%) Тe
(°С)
Pmin
(гПа)
dP
(гПа)
Po
(мм)
O2
(г/м3)
Тmin Tmax R s Состояние
почвы
00 12.06.14 250 (З) 20000 м  {ливн. осадки}  10/3 1000 м кучево-дожд., средняя 
[Cb calv|Ac und]
+13.7 +10.7 82 +16  1004.9  -0.6  715  272           
03 12.06.14 260 (З) 20000 м    4/3 600 м верхняя 
[Cu med, cong|Ci fib]
+14.5 +12.8 90 +20  1004  -0.6  714  271  +13.3    0.0    влажная 
06 12.06.14 270 (З) 6-10{11}  20000 м    8/5 300 м кучево-дожд., средняя 
[Cb calv|Ac trans]
+17.8 +13.4 75 +25  1003.1  -0.3  714  267           
09 12.06.14 290 (З) 5{12}  10 км  слаб. ливневой дождь, в посл. час гроза  10/8 480 м кучево-дожд., средняя 
[Cb cap|Ac und]
+14.6 +12.8 89 +20  1003.8  -0.1  714  270           
12 12.06.14 270 (З) 3{13}  20000 м  слаб. ливневой дождь{гроза}  10/6 500 м кучево-дожд., средняя 
[Cb cap|Ac und]
+15.1 +13.2 88 +22  1004.2  0.5  714  270           
15 12.06.14 270 (З) 20000 м  {гроза, ливн. осадки}  8/4 600 м кучево-дожд., средняя 
[Cb calv|Ac trans]
+14.6 +10.6 77 +17  1004.6  0.3  714  271    +17.9  16     
18 12.06.14 280 (З) 6-10{11}  20000 м  {гроза}  8/4 600 м кучево-дожд., средняя 
[Cb calv|Ac trans]
+13.2 +11.3 88 +16  1006.3  1.3  716  273           
21 12.06.14 290 (З) 6-10{11}  20000 м  в посл. час ливневой дождь  10/6 300 м кучево-дожд., средняя 
[Cb calv|Ac und]
+12.6 +11.3 92 +16  1006.8  0.4  716  273           
00 13.06.14 280 (З) 7-11  20000 м  {ливн. осадки}  10/4 270 м кучево-дожд., средняя 
[Cb calv|Ac und]
+12.5 +10.9 90 +14  1006.7  0.4  716  274           
03 13.06.14 270 (З) 20000 м    9/6 300 м кучево-дожд., средняя 
[Cb calv|Ac trans]
+12.8 +11 89 +15  1007.1  0.4  716  273  +12.2      влажная 
06 13.06.14 270 (З) 8-12{13}  20000 м    6/6 720 м кучево-дожд. 
[Cb calv]
+15.7 +10.7 72 +18  1007.5  0.9  717  271           
09 13.06.14 280 (З) 8-12{15}  20000 м    6/6 800 м кучево-дожд. 
[Cb calv]
+18.9 +7.5 47 +19  1007.6  0.5  717  269           
12 13.06.14 280 (З) 4{13}  20000 м  в посл. час ливневой дождь  8/0 кучево-дожд., средняя 
[Cb calv|Ac trans]
+16.4 +11.8 74 +21  1008.2  0.2  717  270           
15 13.06.14 270 (З) 6{11}  20000 м    5/3 600 м средняя 
[Sc diur, vesp|Ac trans]
+18.6 +10.5 59 +22  1007.3  0.2  717  268    +19.5  0.5     
18 13.06.14 280 (З) 6{14}  20000 м    3/1 600 м кучево-дожд., средняя 
[Cb calv|Ac trans]
+15.6 +10.6 72 +18  1008.1  0.2  717  271           
21 13.06.14 260 (З) 7-10{12}  20000 м    3/1 600 м средняя 
[Sc diur, vesp|Ac trans]
+15 +10.1 73 +16  1008.2  717  272           
00 14.06.14 260 (З) 6{11}  20000 м    4/0 средняя 
[Ac trans]
+14.9 +9.5 70 +15  1007.9  -0.3  717  272           
03 14.06.14 250 (З) 20000 м    8/3 600 м средняя 
[Sc|Ac trans]
+15.5 +9.4 67 +16  1007.9  717  272  +14.4        влажная 
06 14.06.14 250 (З) 7-10{13}  20000 м    6/3 600 м средняя 
[Cu med, cong|Ac trans]
+19.3 +11.5 61 +23  1007.8  0.7  717  268           
09 14.06.14 260 (З) 8-12{15}  20000 м    6/3 1000 м средняя, верхняя 
[Cu med, cong|Ac trans|Ci fib]
+21.4 +13.4 60 +29  1007.4  717  265           
12 14.06.14 270 (З) 10-14{15}  20000 м    4/3 1000 м средняя 
[Cu hum|Ac trans]
+22.5 +11.2 49 +26  1007.6  0.3  718  265           
15 14.06.14 270 (З) 7-11{14}  20000 м    3/1 1000 м верхняя 
[Cu hum|Ci fib]
+21.5 +11.5 53 +26  1008.8  718  266    +22.8       
18 14.06.14 250 (З) 3{11}  20000 м    3/0 средняя 
[Ac lent]
+15.7 +12.5 81 +22  1011  1.1  719  272           
21 14.06.14 230 (ЮЗ) 20000 м    1/0 средняя 
[Ac trans]
+14.9 +10.4 74 +18  1011.2  719  273           
00 15.06.14 140 (ЮВ) 20000 м    4/0 средняя 
[Ac trans]
+14.7 +11.2 80 +20  1011.2  719  273           
03 15.06.14 230 (ЮЗ) 20000 м    6/0 средняя 
[Ac trans]
+15.6 +11.7 78 +20  1011.3  0.2  719  272  +12.7        сухая 
06 15.06.14 260 (З) 20000 м    6/0 средняя 
[Ac trans]
+21 +9.8 49 +23  1011  0.6  720  268           
09 15.06.14 260 (З) 6{10}  20000 м    8/3 600 м средняя, верхняя 
[Cu hum|Ac trans|Ci fib]
+23.3 +10.7 45 +26  1010.3  -0.3  720  265           
12 15.06.14 290 (З) 7-11{12}  20000 м    8/4 600 м кучево-дожд., средняя 
[Cb calv|Ac trans]
+20.5 +13.1 63 +27  1012.2  1.4  721  267           
15 15.06.14 250 (З) 20000 м  в посл. час ливневой дождь  10/6 600 м кучево-дожд., средняя 
[Cb calv|Ac und]
+16.7 +11.7 72 +21  1012.6  1.4  720  271    +24  0.0     
18 15.06.14 210 (ЮЗ) 20000 м  {ливн. осадки}  9/4 1000 м кучево-дожд., средняя 
[Cb calv|Ac trans]
+15.7 +10.3 70 +18  1013.4  0.6  721  273           
21 15.06.14 260 (З) 20000 м    6/3 1000 м кучево-дожд., средняя 
[Cb calv|Ac trans]
+14.7 +11.6 82 +19  1014.4  0.8  721  274           
00 16.06.14 280 (З) 20000 м    10/4 1000 м кучево-дожд., средняя 
[Cb calv|Ac und]
+15.9 +12.8 82 +22  1014.4  0.3  722  272           
03 16.06.14 280 (З) 20000 м  слаб. ливневой дождь  10/5 1000 м кучево-дожд., средняя 
[Cb cap|Ac und]
+15.8 +13.8 88 +25  1015.1  0.7  722  272  +13.9    0.0     
06 16.06.14 250 (З) 20000 м  {ливн. осадки}  10/4 1000 м кучево-дожд., средняя 
[Cb calv|Ac und]
+19 +13.4 70 +28  1015.1  0.5  723  269           
09 16.06.14 260 (З) 20000 м    8/4 600 м кучево-дожд., средняя 
[Cb calv|Ac trans]
+22.1 +12 53 +27  1014.4  -0.2  722  267           
12 16.06.14 300 (СЗ) 20000 м    3/3 600 м 
[Cu hum]
+24.1 +10.6 43 +27  1013.3  -0.7  722  265           
15 16.06.14 310 (СЗ) 20000 м    4/1 1000 м средняя 
[Cu hum|Ac trans]
+23.3 +9.8 42 +25  1013.4  0.1  722  266    +24.4       
18 16.06.14 010 (С) 20000 м    4/3 1000 м кучево-дожд., средняя 
[Cb calv|Ac trans]
+19.2 +11.7 62 +24  1015  0.9  722  270           
21 16.06.14 350 (С) 20000 м    5/3 600 м кучево-дожд., средняя 
[Cb calv|Ac trans]
+17.8 +10.6 63 +22  1015.2  0.1  722  271           
00 17.06.14 360 (С) 20000 м    8/3 600 м кучево-дожд., средняя 
[Cb calv|Ac trans]
+17.6 +9.7 60 +20  1015  -0.2  722  272           
03 17.06.14 150 (ЮВ) 20000 м    10/4 600 м кучево-дожд., средняя 
[Cb calv|Ac und]
+17.7 +12.5 72 +24  1015.8  0.8  723  271  +15.8        сухая 
06 17.06.14 090 (В) 20000 м    10/5 1260 м средняя 
[Sc|Ac und]
+19.8 +11.6 59 +25  1015.9  0.4  723  269           
09 17.06.14 050 (СВ) 20000 м    8/0 средняя, верхняя 
[Ac trans|Cc]
+22.3 +11.3 50 +26  1015.3  0.1  723  267           
12 17.06.14 050 (СВ) 20000 м    4/0 верхняя 
[Ci fib]
+25 +13 47 +31  1013.7  -1  722  264           
15 17.06.14 080 (В) 20000 м    3/1 600 м верхняя 
[Cu hum|Ci fib]
+25.4 +13.4 47 +32  1012.9  -0.7  722  263    +25.5       
18 17.06.14 340 (С) 20000 м    8/0 средняя 
[Ac trans]
+21.4 +13.9 62 +29  1013.9  0.3  722  267           
21 17.06.14 090 (В) 20000 м    4/0 средняя 
[Ac trans]
+18.4 +12.2 67 +25  1014.4  -0.2  722  270           
00 18.06.14 330 (СЗ) 20000 м    ясно 
+17.3 +11.7 70 +23  1013.6  -0.9  721  271           
03 18.06.14 140 (ЮВ) 20000 м    3/0 верхняя 
[Ci]
+20.8 +13.6 63 +28  1012.6  -0.4  721  267  +15.2    0.0    сухая 
06 18.06.14 220 (ЮЗ) 20000 м    ясно 
+23.6 +13.8 54 +31  1011.8  -0.3  721  265           
09 18.06.14 260 (З) 20000 м    8/3 600 м верхняя 
[Cu hum|Ci fib]
+25.2 +15.7 56 +36  1011.4  721  263           
12 18.06.14 270 (З) 20000 м    9/3 600 м кучево-дожд., средняя, верхняя 
[Cb calv|Ac trans|Ci fib]
+25.4 +14.9 52 +35  1010.5  -0.9  720  262           
15 18.06.14 270 (З) 20000 м    8/3 600 м верхняя 
[Cu hum|Ci fib]
+24 +13.8 53 +32  1010.2  -0.5  720  264    +26.5  0.0     
18 18.06.14 270 (З) 20000 м    9/4 1000 м кучево-дожд., средняя, верхняя 
[Cb calv|Ac trans|Ci fib]
+19.2 +13.8 71 +28  1011.5  0.4  720  268           
21 18.06.14 280 (З) 5{10}  20000 м    8/3 1000 м кучево-дожд., верхняя 
[Cb calv|Ci fib]
+19 +13.6 71 +26  1010.8  -0.7  719  268           
00 19.06.14 280 (З) 7-11{12}  20000 м    9/4 1000 м кучево-дожд., средняя 
[Cb calv|Ac trans]
+18.2 +13.3 73 +25  1010.9  -0.1  719  269           
03 19.06.14 270 (З) 20000 м    8/4 300 м кучево-дожд., средняя 
[Cb calv|Ac trans]
+18.1 +14.8 81 +27  1011.4  0.5  720  269  +17.1        сухая 
06 19.06.14 290 (З) 5{10}  20000 м  в посл. час ливневой дождь  8/5 450 м кучево-дожд., средняя 
[Cb calv|Ac trans]
+18.6 +15.1 80 +29  1012  0.7  720  269           
09 19.06.14 290 (З) 20000 м    8/4 600 м кучево-дожд., средняя 
[Cb calv|Ac trans]
+20.2 +13.5 65 +27  1012.2  0.4  721  268           
12 19.06.14 340 (С) 20000 м    10/4 600 м кучево-дожд., средняя 
[Cb calv|Ac und]
+20.8 +12.6 59 +27  1012.4  0.2  721  267           
15 19.06.14 010 (С) 20000 м    8/4 600 м средняя 
[Sc diur, vesp|Ac trans]
+21 +12.1 57 +26  1011.9  -0.4  721  267    +22       
18 19.06.14 060 (СВ) 20000 м    10/0 средняя 
[Ac und]
+18.4 +12.4 68 +24  1012.2  -0.2  720  269           
21 19.06.14 050 (СВ) 20000 м    10/0 средняя 
[Ac und]
+17.7 +10.5 63 +21  1011.3  -1  720  270           
00 20.06.14 080 (В) 20000 м    10/0 средняя 
[Ac und]
+15.8 +8.2 61 +16  1010.4  -1.2  719  272           
03 20.06.14 090 (В) 20000 м    4/0 средняя 
[Ac trans]
+15.9 +8.6 62 +16  1009.1  -1.3  718  272  +15        сухая 
06 20.06.14 120 (ЮВ) 20000 м    3/0 верхняя 
[Ci fib]
+21.7 +13 58 +28  1006.8  -1.1  717  265           
09 20.06.14 120 (ЮВ) 7-10{12}  20000 м    6/1 600 м верхняя 
[Cu hum|Ci fib]
+26.2 +15.4 51 +37  1005.1  -0.8  716  260           
12 20.06.14 120 (ЮВ) 7-11{11}  20000 м    5/5 1000 м 
[Cu hum]
+28.3 +14.7 43 +38  1003  -1.8  715  258           
15 20.06.14 110 (В) 9-12{12}  20000 м    ясно 
+27 +14.6 47 +36  1001.4  -1.7  714  259    +28.4       
18 20.06.14 100 (В) 8-11{12}  20000 м    3/0 средняя 
[Ac trans]
+22.8 +14.7 60 +32  1001.8  -0.3  714  262           
21 20.06.14 120 (ЮВ) 8-11{13}  20000 м    4/0 средняя 
[Ac trans]
+19.8 +14.6 72 +29  1001.1  -1.2  713  265           
00 21.06.14 080 (В) 1{11}  20000 м    8/3 600 м кучево-дожд., средняя 
[Cb calv|Ac trans]
+17.6 +14.7 83 +29  1002.3  0.8  713  267           
03 21.06.14 310 (СЗ) 20000 м    10/4 600 м кучево-дожд., средняя 
[Cb calv|Ac und]
+18.1 +13.7 75 +26  1003.5  1.3  714  267  +16.8        сухая 
06 21.06.14 260 (З) 2{14}  20000 м  {ливн. осадки}  10/4 600 м кучево-дожд., средняя 
[Cb calv|Ac und]
+19.7 +14.2 71 +30  1004.1  0.9  715  266           
09 21.06.14 260 (З) 20000 м    8/3 600 м кучево-дожд., средняя 
[Cb calv|Ac trans]
+23.8 +14.1 55 +32  1003.7  0.3  715  262           
12 21.06.14 260 (З) 20000 м    8/3 600 м средняя 
[Cu med, cong|Ac trans]
+24.5 +16.7 62 +38  1004.9  1.3  716  261           
15 21.06.14 260 (З) 7-11  20000 м    3/3 600 м средняя 
[Cu hum|Ac trans]
+22.8 +12.6 53 +29  1006.6  1.3  717  264    +25.2       
18 21.06.14 250 (З) 5{11}  20000 м    6/3 600 м средняя, верхняя 
[Sc diur, vesp|Ac trans|Ci fib]
+18.6 +12.7 69 +25  1009.5  719  269           
21 21.06.14 280 (З) 8-14{14}  20000 м    10/4 600 м кучево-дожд., средняя 
[Cb calv|Ac und]
+17.7 +12.6 72 +23  1009.3  -0.3  718  269           
00 22.06.14 280 (З) 6{14}  20000 м    8/3 600 м кучево-дожд., средняя 
[Cb cap|Ac As]
+16.4 +13.1 81 +23  1012.3  2.6  720  271           
03 22.06.14 280 (З) 5{10}  20000 м    6/3 600 м средняя, верхняя 
[Sc|Ac As|Ci fib]
+16.4 +12.9 80 +22  1013.2  0.8  721  271  +15.9        сухая 
06 22.06.14 250 (З) 20000 м    3/3 600 м верхняя 
[Cu hum|Ci fib]
+20.6 +12.9 61 +27  1013.5  722  268           
09 22.06.14 250 (З) 4{11}  20000 м    8/8 930 м 
[Cu med, cong]
+22.3 +12.9 55 +28  1013.7  0.5  722  266           
12 22.06.14 260 (З) 5{10}  20000 м    3/3 600 м 
[Cu hum]
+23.8 +11.3 45 +28  1013.8  0.3  722  266           
15 22.06.14 330 (СЗ) 20000 м  гроза без осадков  8/4 600 м кучево-дожд., средняя 
[Cb calv|Ac trans]
+20.2 +13.3 65 +27  1014.8  0.4  722  268    +24.1       
18 22.06.14 170 (Ю) 20000 м  слаб. ливневой дождь, в посл. час гроза  10/8 900 м кучево-дожд., средняя 
[Cb cap|Ac und]
+16.6 +15.2 91 +28  1017.9  0.4  724  272           
21 22.06.14 250 (З) 10 км  слаб. ливневой дождь  10/8 900 м кучево-дожд., средняя 
[Cb cap|Ac und]
+15.7 +14.8 94 +25  1018.3  0.2  724  273           
00 23.06.14 270 (З) 20000 м  в посл. час гроза{ливн. осадки}  9/6 1000 м кучево-дожд., средняя 
[Cb cap|Ac trans]
+15.5 +14.3 93 +24  1018.5  0.1  725  273           
03 23.06.14 300 (СЗ) 20000 м    8/4 1000 м кучево-дожд., средняя 
[Cb cap|Ac trans]
+16 +13.8 87 +25  1018.3  0.1  724  273  +15.3      влажная 
06 23.06.14 290 (З) 20000 м    8/5 570 м кучево-дожд., средняя 
[Cb calv|Ac trans]
+19.5 +14.3 72 +29  1018.1  0.5  725  270           
09 23.06.14 280 (З) 20000 м    9/9 700 м кучево-дожд. 
[Cb calv]
+20.9 +13 61 +27  1017.6  -0.3  725  269           
12 23.06.14 260 (З) 20000 м    5/5 600 м кучево-дожд. 
[Cb calv]
+23.5 +12.7 51 +29  1016.4  -0.7  724  266           
15 23.06.14 270 (З) 20000 м    3/3 600 м 
[Cu hum]
+22.1 +10.5 48 +25  1016.6  0.1  724  268    +23.7       
18 23.06.14 290 (З) 20000 м    4/4 1000 м кучево-дожд. 
[Cb calv]
+18.1 +11.7 66 +22  1018.4  0.1  725  272           
21 23.06.14 280 (З) 20000 м    5/0 средняя 
[Ac trans]
+16.4 +12.7 79 +22  1018.9  0.2  725  273           
00 24.06.14 250 (З) 20000 м    4/0 средняя 
[Ac trans]
+14.3 +12.7 90 +20  1019.4  0.1  725  275           
03 24.06.14 280 (З) 20000 м    4/3 600 м средняя 
[Sc|Ac trans]
+15.9 +12.2 79 +21  1018.9  -0.2  725  274  +13.7        сухая 
06 24.06.14 260 (З) 20000 м    5/3 600 м средняя 
[Cu hum|Ac trans]
+20.2 +11.9 59 +25  1018.1  725  270           
09 24.06.14 270 (З) 20000 м    3/3 600 м 
[Cu hum]
+22.5 +10.6 47 +25  1017.3  -0.4  725  268           
12 24.06.14 310 (СЗ) 20000 м    3/3 600 м 
[Cu hum]
+23.3 +9.8 42 +25  1016.2  -0.9  724  267           
15 24.06.14 290 (З) 20000 м    3/3 1000 м 
[Cu hum]
+23.3 +8.8 40 +24  1015.8  -0.4  724  267    +23.8       
18 24.06.14 320 (СЗ) 20000 м    1/0 средняя 
[Ac trans]
+18.9 +10.6 59 +23  1016.7  0.2  724  271           
21 24.06.14 040 (СВ) 20000 м    ясно 
+17.3 +9.6 61 +19  1016.3  -0.7  723  272           
00 25.06.14 130 (ЮВ) 20000 м    ясно 
+14 +9.7 75 +17  1015.3  -1.5  722  275           
03 25.06.14 130 (ЮВ) 20000 м    3/0 средняя 
[Ac trans]
+18.2 +11 63 +22  1013.8  -0.7  722  270  +13.8        сухая 
06 25.06.14 120 (ЮВ) 20000 м    3/0 верхняя 
[Ci sp]
+22 +11.2 50 +26  1012.8  -0.3  721  267           
09 25.06.14 130 (ЮВ) 6{11}  20000 м    1/1 600 м 
[Cu hum]
+25.6 +12.6 44 +31  1010.9  -1.1  720  263           
12 25.06.14 160 (Ю) 20000 м    5/5 600 м 
[Cu med, cong]
+25.7 +13.2 46 +32  1009.9  -0.9  720  262           
15 25.06.14 180 (Ю) 20000 м    3/3 600 м 
[Cu hum]
+26.2 +11.3 39 +30  1009.2  -0.6  719  262    +27.6       
18 25.06.14 250 (З) 20000 м    3/0 средняя 
[Ac trans]
+21.4 +13 59 +28  1011  0.9  720  266           
21 25.06.14 290 (З) 20000 м    3/0 средняя 
[Ac trans]
+20.8 +12.5 59 +26  1010.8  -0.4  720  267           
00 26.06.14 290 (З) 20000 м    3/0 средняя 
[Ac trans]
+18.6 +13.7 73 +27  1010.4  -0.7  719  268           
03 26.06.14 280 (З) 20000 м    4/3 600 м средняя 
[Sc|Ac trans]
+19.7 +14 70 +29  1010.1  -0.1  719  267  +16.1        сухая 
06 26.06.14 300 (СЗ) 20000 м    6/1 600 м средняя 
[Cu hum|Ac trans]
+22 +14.3 62 +31  1010.1  0.4  719  265           
09 26.06.14 340 (С) 20000 м    6/3 600 м средняя 
[Cu hum|Ac trans]
+24.9 +13.6 49 +32  1009.4  -0.2  719  263           
12 26.06.14 290 (З) 20000 м    6/3 1000 м средняя 
[Cu hum|Ac trans]
+26.7 +13.2 43 +33  1008.3  -0.8  719  261           
15 26.06.14 300 (СЗ) 20000 м    8/3 1000 м средняя, верхняя 
[Cu med, cong|Ac trans|Ci ing]
+25.3 +15.8 56 +37  1008.3  -0.1  719  262    +27.4       
18 26.06.14 210 (ЮЗ) 20000 м  в посл. час гроза{ливн. осадки}  10/5 1000 м кучево-дожд., средняя 
[Cb calv|Ac und]
+19.5 +17.2 87 +34  1011.2  1.8  720  267           
21 26.06.14 220 (ЮЗ) 20000 м    3/1 1000 м кучево-дожд., средняя 
[Cb calv|Ac trans]
+17.2 +13.7 80 +25  1011.2  -0.4  720  270           
00 27.06.14 230 (ЮЗ) 20000 м    3/0 средняя 
[Ac trans]
+16.5 +12.1 75 +22  1010.6  -0.8  719  271           
03 27.06.14 250 (З) 20000 м    1/0 средняя 
[Ac trans]
+18.8 +12.6 67 +25  1010.7  0.5  719  269  +16.2      сухая 
06 27.06.14 240 (ЮЗ) 8-11{12}  20000 м    4/3 300 м средняя 
[Sc|Ac trans]
+22.1 +14.4 62 +31  1010.4  0.3  720  265           
09 27.06.14 240 (ЮЗ) 9-14{14}  20000 м    3/3 600 м 
[Cu hum]
+26.2 +11.1 39 +30  1010.2  0.4  720  263           
12 27.06.14 260 (З) 10-14{15}  20000 м    4/4 600 м 
[Cu hum]
+26.3 +11 38 +30  1010.8  0.6  720  263           
15 27.06.14 260 (З) 9-12  20000 м    3/0 средняя 
[Ac trans]
+24.4 +9.6 39 +26  1011.6  0.4  721  265    +26.9       
18 27.06.14 280 (З) 7-12{13}  20000 м    3/0 средняя 
[Ac trans]
+19.9 +11.9 60 +25  1014.4  1.9  722  269           
21 27.06.14 260 (З) 2{12}  20000 м    5/0 средняя 
[Ac trans]
+14.9 +10.6 75 +19  1016.8  1.4  723  274           
00 28.06.14 270 (З) 20000 м    3/0 средняя 
[Ac trans]
+14.4 +10.5 77 +17  1017.7  0.7  724  275           
03 28.06.14 290 (З) 20000 м    8/3 600 м средняя 
[Sc|Ac trans]
+14.7 +11.4 81 +19  1018.8  1.1  725  275  +13.6        сухая 
06 28.06.14 060 (СВ) 20000 м  {ливн. осадки}  10/5 600 м кучево-дожд., средняя 
[Cb calv|Ac und]
+16.6 +10.3 66 +20  1019.1  0.5  725  273           
09 28.06.14 040 (СВ) 20000 м    8/3 600 м средняя 
[Cu hum|Ac trans]
+19.5 +9.6 53 +22  1018.3  -0.3  725  271           
12 28.06.14 120 (ЮВ) 20000 м    6/3 600 м средняя 
[Cu hum|Ac trans]
+21.2 +8.7 45 +21  1017.4  -0.6  724  269           
15 28.06.14 340 (С) 20000 м    9/4 1000 м кучево-дожд., средняя 
[Cb calv|Ac trans]
+20.4 +8.5 46 +20  1017.4  0.1  724  270    +22.7       
18 28.06.14 020 (С) 20000 м    8/3 1000 м кучево-дожд., средняя 
[Cb calv|Ac trans]
+17.1 +9.2 60 +20  1019  0.9  725  273           
21 28.06.14 360 (С) 20000 м    6/0 средняя 
[Ac trans]
+16.9 +8.7 58 +18  1019  0.1  725  274           
00 29.06.14 050 (СВ) 20000 м    10/3 1000 м средняя 
[Sc|Ac und]
+16.7 +8.3 58 +18  1019  725  274           
03 29.06.14 060 (СВ) 20000 м    10/3 1000 м кучево-дожд., средняя 
[Cb calv|Ac und]
+16.3 +9.1 62 +18  1019.7  0.6  725  274  +15.5        сухая 
06 29.06.14 080 (В) 20000 м    9/3 1000 м средняя 
[Sc|Ac trans]
+20.2 +10 52 +22  1019.1  0.6  726  270           
09 29.06.14 090 (В) 4{11}  20000 м    8/3 600 м верхняя 
[Cu hum|Ci]
+24.2 +8.9 38 +25  1017.8  -0.6  725  267           
12 29.06.14 100 (В) 6{11}  20000 м    10/5 1000 м средняя 
[Sc|Ac und]
+23.4 +10.4 44 +26  1017.7  -0.2  725  267           
18 29.06.14 120 (ЮВ) 20000 м    6/3 1000 м средняя, верхняя 
[Sc diur, vesp|Ac trans|Ci fib]
+18.8 +11.5 63 +23  1019.4  0.6  726  271           
21 29.06.14 090 (В) 20000 м    1/0 средняя 
[Ac trans]
+16.1 +11.3 73 +20  1020  0.1  726  274           
00 30.06.14 070 (В) 20000 м    3/0 средняя 
[Ac trans]
+14.6 +11.4 81 +18  1020.3  726  275           
03 30.06.14 100 (В) 20000 м    1/0 средняя 
[Ac trans]
+16.1 +13.4 84 +23  1020.6  0.6  726  274  +14.1        сухая 
06 30.06.14 120 (ЮВ) 11-15{15}  20000 м    ясно 
+22.1 +11.1 50 +25  1020.3  0.7  727  269           
09 30.06.14 100 (В) 12-18{18}  20000 м    3/3 600 м 
[Cu hum]
+24.4 +10.7 42 +27  1019.9  727  267           
12 30.06.14 100 (В) 11-15{18}  20000 м    3/3 1000 м 
[Cu hum]
+25.5 +9.5 36 +27  1018.7  -1  726  266           
15 30.06.14 110 (В) 11-15{17}  20000 м    1/0 средняя 
[Ac trans]
+24.7 +7.7 34 +25  1017.7  -1.1  725  267    +25.8       
18 30.06.14 100 (В) 6{15}  20000 м    3/0 средняя 
[Ac trans]
+19.5 +8.3 48 +20  1018.7  0.1  725  271           
21 30.06.14 120 (ЮВ) 6{11}  20000 м    1/0 средняя 
[Ac trans]
+17.5 +10 61 +19  1018.4  -0.6  725  273           
00 01.07.14 100 (В) 7{10}  20000 м    3/0 средняя 
[Ac trans]
+14.7 +11 78 +17  1018.3  -0.6  724  275           
03 01.07.14 090 (В) 8-10{11}  20000 м    3/0 средняя 
[Ac trans]
+15.6 +13 85 +21  1017.8  -0.3  724  273  +13.9        сухая 
Время (UTC), дата Ветер
(°,м/с) 
Видим.   Явления Облачность Т
(°С)
Тd
(°С)
f(%) Тe
(°С)
Pmin
(гПа)
dP
(гПа)
Po
(мм)
O2
(г/м3)
Тmin Tmax R s Состояние
почвы